View from above orbital plane
|
View from above satellite
|
Ground track
|
The orbit data is extracted from the following two-line orbital elements,
1 43187U 18014H 21019.70076467 .00000634 00000-0 60136-4 0 9990
2 43187 97.6867 289.8610 0009834 212.9046 147.1564 14.96953230162043
Epoch (UTC): | 19 January 2021 16:49:06 |
Eccentricity: | 0.0009834 |
inclination: | 97.6867° |
perigee height: | 569 km |
apogee height: | 583 km |
right ascension of ascending node: | 289.8610° |
argument of perigee: | 212.9046° |
revolutions per day: | 14.96953230 |
mean anomaly at epoch: | 147.1564° |
orbit number at epoch: | 16204 |
The dashed part of the orbit path shows where the satellite is in the earth's shadow,
|
|